Location: Jackson Park
(37.2862°N, 79.9123°W)
Time: 14:54:31
(UTC+00:00)

Vanguard 2 Rocket - Pass Details

Date: 16 May 2026
Orbit: 553 x 3286 km, 32.9° (Epoch: 6 June)

Event Time Altitude Azimuth Distance (km) Brightness Sun altitude
Rises 14:15:49 0° 217° (SW) 4,422 10.2 46.9°
Reaches altitude 10° 14:18:33 10° 209° (SSW) 3,760 10.0 47.4°
Maximum altitude 14:28:07 40° 143° (SE) 2,964 10.8 49.3°
Drops below altitude 10° 14:43:10 10° 82° (E) 5,862 11.7 52.1°
Sets 14:48:40 0° 77° (ENE) 7,113 11.9 53.2°
